This is the latest recevied weather packets stored in our database for station/object AC2VK-1. If no packets are shown the sender has not sent any weather packets the latest 10 day(s).
| Time | Temp. | Humidity | Pressure | Rain* | Wind** | Luminosity | Snow |
|---|---|---|---|---|---|---|---|
| 1777510173 | 20° C | 74% | 1012.7 hPa | 0 mm | - | - | - |
| 1777509573 | 20.56° C | 74% | 1012.7 hPa | 0 mm | - | - | - |
| 1777508973 | 20.56° C | 73% | 1012.5 hPa | 0 mm | - | - | - |
| 1777508373 | 21.11° C | 73% | 1012.5 hPa | 0 mm | - | - | - |
| 1777507773 | 21.11° C | 72% | 1012.5 hPa | 0 mm | - | - | - |
| 1777507173 | 21.67° C | 72% | 1012.3 hPa | 0 mm | - | - | - |
| 1777506573 | 21.67° C | 71% | 1012 hPa | 0 mm | - | - | - |
| 1777505973 | 22.22° C | 71% | 1011.9 hPa | 0 mm | - | - | - |
| 1777505373 | 22.22° C | 71% | 1011.9 hPa | 0 mm | - | - | - |
| 1777504773 | 22.78° C | 70% | 1012 hPa | 0 mm | - | - | - |
| 1777504173 | 22.78° C | 70% | 1012 hPa | 0 mm | - | - | - |
| 1777503573 | 22.78° C | 71% | 1012 hPa | 0 mm | - | - | - |
| 1777502973 | 22.78° C | 71% | 1012 hPa | 0 mm | - | - | - |
| 1777502373 | 22.78° C | 71% | 1012 hPa | 0 mm | - | - | - |
| 1777501773 | 23.33° C | 71% | 1011.9 hPa | 0 mm | - | - | - |
| 1777501173 | 23.33° C | 72% | 1011.8 hPa | 0 mm | - | - | - |
| 1777500573 | 23.33° C | 71% | 1011.5 hPa | 0 mm | - | - | - |
| 1777499973 | 23.33° C | 71% | 1011.3 hPa | 0 mm | - | - | - |
| 1777499373 | 23.33° C | 71% | 1011.1 hPa | 0 mm | - | - | - |
| 1777498773 | 23.33° C | 73% | 1011.2 hPa | 0 mm | - | - | - |
| 1777498173 | 22.78° C | 74% | 1011.2 hPa | 0 mm | - | - | - |
| 1777497574 | 22.78° C | 74% | 1011.1 hPa | 0 mm | - | - | - |
| 1777496974 | 23.33° C | 74% | 1011.2 hPa | 0 mm | - | - | - |
| 1777496374 | 23.89° C | 75% | 1011.1 hPa | 0 mm | - | - | - |
| 1777495774 | 23.89° C | 74% | 1011.2 hPa | 0 mm | - | - | - |
* Rain latest hour (hover to see other rain measurements)
** Current wind speed in m/s (hover to see current wind gust speed)